Overview Statistics Trail Chart Weather Telemetry Raw packets
 

This is the latest recevied weather packets stored in our database for station/object N1YZ. If no packets are shown the sender has not sent any weather packets the latest 10 day(s).

<< 55 56 57 58 59 60 61 >>
Time Temp. Humidity Pressure Rain* Wind** Luminosity Snow
1788281984 32.78° C 62% 1039 hPa 0 mm - 365 W/m² -
1788281679 32.78° C 64% 1039.1 hPa 0 mm - 646 W/m² -
1788281375 33.33° C 61% 1039 hPa 0 mm - 401 W/m² -
1788281070 32.78° C 63% 1039.1 hPa 0 mm - 237 W/m² -
1788280765 32.78° C 60% 1039 hPa 0 mm - 85 W/m² -
1788280459 32.78° C 62% 1039.1 hPa 0 mm - 603 W/m² -
1788280154 32.22° C 62% 1038.9 hPa 0 mm - 199 W/m² -
1788279854 31.67° C 61% 1038.8 hPa 0 mm - 65 W/m² -
1788279547 31.67° C 59% 1039.2 hPa 0 mm - 54 W/m² -
1788279247 31.67° C 57% 1039.1 hPa 0 mm - 55 W/m² -
1788278942 31.67° C 69% 1039.1 hPa 0 mm - 52 W/m² -
1788278638 31.67° C 66% 1039.2 hPa 0 mm - 44 W/m² -
1788278337 31.67° C 70% 1039.4 hPa 0 mm - 47 W/m² -
1788278032 31.11° C 69% 1039.4 hPa 0 mm - 49 W/m² -
1788277729 31.11° C 67% 1039.6 hPa 0 mm - 47 W/m² -
1788277428 31.67° C 68% 1039.4 hPa 0 mm - 65 W/m² -
1788277123 31.67° C 67% 1039.6 hPa 0 mm - 221 W/m² -
1788276817 31.67° C 68% 1039.5 hPa 0 mm - 206 W/m² -
1788276516 31.67° C 64% 1039.7 hPa 0 mm - 157 W/m² -
1788276216 31.11° C 67% 1039.6 hPa 0 mm - 431 W/m² -
1788275912 31.11° C 67% 1039.6 hPa 0 mm - 138 W/m² -
1788275606 31.11° C 67% 1039.7 hPa 0 mm - 148 W/m² -
1788275305 31.11° C 69% 1039.8 hPa 0 mm - 34 W/m² -
1788275004 31.11° C 70% 1039.9 hPa 0 mm - 196 W/m² -
1788274702 30.56° C 71% 1039.8 hPa 0 mm - 356 W/m² -

* Rain latest hour (hover to see other rain measurements)
** Current wind speed in m/s (hover to see current wind gust speed)